Regional Weather Roundup
Issued by NWS

Home | Current Version | Previous Version | Graphics & Text | Print | Product List | Glossary On
Versions: 1 2 3 4 5 6 7 8 9 10 11 12 13 14 15 16 17 18 19 20 21 22 23 24 25 26 27
000
ASUS45 KBOU 221607
RWRCO

WEATHER ROUNDUP FOR COLORADO
NATIONAL WEATHER SERVICE DENVER/BOULDER CO
1000 AM MDT SUN OCT 22 2017

NOTE: "FAIR" INDICATES FEW OR NO CLOUDS BELOW 12000 FEET WITH NO
SIGNIFICANT WEATHER AND/OR OBSTRUCTIONS TO VISIBILITY.

COZ001>005-013-030-031-221700-
...NORTHWEST COLORADO...

CITY           SKY/WX    TMP DP  RH WIND       PRES   REMARKS
CRAIG          FAIR      41  24  51 E3        30.43R
HAYDEN         FAIR      40  23  50 SE3       30.44S
MEEKER         FAIR      39  25  57 CALM      30.45R
RABBIT EARS PA FAIR      25  21  86 W12G25    30.42R WCI  14
STEAMBOAT SPGS FAIR      37  25  63 E3        30.42S
WALDEN         NOT AVBL
$$

COZ006>008-011-221700-
...WEST CENTRAL VALLEYS...

CITY           SKY/WX    TMP DP  RH WIND       PRES   REMARKS
GRAND JUNCTION FAIR      46  20  35 SE10      30.46R
MONTROSE       FAIR      41  16  36 CALM      30.51R
EAGLE          FAIR      31  22  69 CALM      30.50R
RIFLE          FAIR      36  25  64 CALM      30.48S
DELTA          FAIR      42  16  36 CALM      30.51R
NUCLA          NOT AVBL
$$

COZ017>023-064>068-221700-
...SOUTHWEST COLORADO...

CITY           SKY/WX    TMP DP  RH WIND       PRES   REMARKS
DURANGO        FAIR      40   9  28 E5        30.44R
CORTEZ         FAIR      49  12  22 E3        30.45R
PAGOSA SPRINGS FAIR      41   6  23 CALM      30.46R
TELLURIDE      FAIR      40  22  47 CALM      30.52S
WOLF CREEK PAS FAIR      36  19  51 NW3       30.60R
$$

COZ009-010-012-014-032>034-037-058>063-221700-
...CENTRAL COLORADO...

CITY           SKY/WX    TMP DP  RH WIND       PRES   REMARKS
ASPEN          FAIR      35  22  58 CALM      30.48R
BUENA VISTA    FAIR      48  19  31 NW18G29   30.35F
COPPER MTN     CLOUDY    28  21  74 MISG      30.49R
BERTHOUD PASS  CLOUDY    18   7  62 NW37G49   30.38R HAZE    WCI  -4
COTTONWOOD PAS FAIR      50  25  37 SW17G32   30.40R
GUNNISON       FAIR      31  19  61 CALM      30.52R
KREMMLING      FAIR      41  25  52 SE8       30.44R
LEADVILLE      FAIR      32  17  54 VRB3      30.45R
MONARCH PASS   FAIR      23  12  63 W39       30.57R WCI   3
SALIDA         FAIR      47  15  28 NW6       30.44S
SUNLIGHT       FAIR      27  19  74 SW7       30.55R WCI  19
WILKERSON PASS FAIR      32  19  59 NW10G20   30.44R WCI  24
$$

COZ069>075-221700-
...SAN LUIS VALLEY/SANGRE DE CRISTO MOUNTAINS...

CITY           SKY/WX    TMP DP  RH WIND       PRES   REMARKS
ALAMOSA        FAIR      41  10  28 NW6       30.45R
DEL NORTE      FAIR      38  10  31 SW5       30.47S
LA VETA PASS   FAIR      34  14  44 S30G40    30.51S WCI  20
SAGUACHE       FAIR      36  16  44 CALM      30.46F
$$

COZ035-036-038>040-221700-
...NORTHERN COLORADO FRONT RANGE...

CITY           SKY/WX    TMP DP  RH WIND       PRES   REMARKS
DENVER INTL AP FAIR      56  21  25 SW12      30.19R
DMNS CITY PARK   N/A     53  21  28 SE10      30.18S
AURORA         MOSUNNY   53  21  28 S9        30.20R
FRONT RANGE AP MOSUNNY   55  25  30 S9G21     30.20R
ERIE MUNI ARPT FAIR      50  26  39 N3        30.23R
BOULDER MUN AP FAIR      48  25  40 CALM      30.17R
CENTENNIAL     FAIR      54  19  25 SE5       30.20S
BROOMFIELD     PTSUNNY   54  25  32 CALM      30.19R
FORT COLLINS   FAIR      43  24  47 NW3       30.19S
LONGMONT       FAIR      47  27  44 CALM      30.19S HAZE
$$

COZ041-046-047-076>085-087-088-221700-
...PIKES PEAK/PALMER DIVIDE AND SOUTHERN FOOTHILLS...

CITY           SKY/WX    TMP DP  RH WIND       PRES   REMARKS
COLO. SPRINGS  PTSUNNY   49  12  22 CALM      30.26F
A. F. ACADEMY  FAIR      44  11  26 CALM      30.24F
SCHRIEVER AFB  FAIR      46  11  23 NE5       30.25F
CHEYENNE MTN   FAIR      44  17  33 CALM      30.21S
ELLICOTT         N/A    N/A N/A N/A CALM      30.24S
FALCON         FAIR      46   9  22 CALM      30.28R
FORT CARSON    FAIR      44  12  28 N8        30.23F
LIMON          FAIR      48  14  25 S12       30.24S
MONUMENT HILL  FAIR      46  19  34 SW7       30.25F
CANON CITY     FAIR      54  19  26 W10       30.25F
WALSENBURG     NOT AVBL
TRINIDAD       FAIR      52  20  28 SW9       30.28S
$$

COZ042>045-048>051-090-091-221700-
...NORTHEAST COLORADO...

CITY           SKY/WX    TMP DP  RH WIND       PRES   REMARKS
GREELEY ARPT   FAIR      41  24  51 SE6       30.20R
AKRON          FAIR      54  15  21 SW16      30.19R
BURLINGTON     FAIR      55  16  21 SW22G32   30.23S
WRAY           FAIR      55  19  24 SW17G24   30.19F
YUMA           NOT AVBL
STERLING       FAIR      48  21  34 SW15      30.17S
HOLYOKE        FAIR      54  23  30 SW13      30.18S
FORT MORGAN    FAIR      49  16  27 SW7       30.20S
$$

COZ086-089-092>099-221700-
...SOUTHEAST COLORADO...

CITY           SKY/WX    TMP DP  RH WIND       PRES   REMARKS
PUEBLO         FAIR      48  16  27 W8        30.24F
LA JUNTA       FAIR      48  22  35 S7        30.23F
LAMAR          FAIR      57  16  20 S16       30.23F
SPRINGFIELD      N/A     53  16  23 S17       30.27F
$$




USA.gov is the U.S. government's official web portal to all federal, state and local government web resources and services.